Location: Moscow
(55.7500°N, 37.5830°E)
Time: 05:18:56
(UTC+03:00)

Vanguard 1 - Pass Details

Date: 03 December 2021
Orbit: 652 x 3830 km, 34.2° (Epoch: 21 January)

Event Time Altitude Azimuth Distance (km) Brightness Sun altitude
Rises 22:59:05 0° 201° (SSW) 7,240 - -53.3°
Reaches altitude 10° 23:05:08 10° 189° (S) 6,564 - -53.7°
Maximum altitude 23:20:54 25° 144° (SE) 5,709 - -54.7°
Drops below altitude 10° 23:36:24 10° 100° (E) 6,520 - -55.5°
Exits shadow 23:38:15 - 96° (E) 6,713 14.1 -55.6°
Sets 23:42:16 0° 89° (E) 7,192 14.4 -55.8°
